Showing default

HULIANWANG DIGUI-142, 67440

Orbit data source: Space-Track

HULIANWANG DIGUI-142, 67440 is a payload satellite owned by Zhongguo Xingwang (CN) in LEO that was launched on Tue, 13 Jan 2026 UTC via a CHANG ZHENG 8A launch vehicle from the Wenchang Satellite Launch Center (WSC). Payload-class satellites include a variety of spacecraft equipped with specific instruments for various scientific and technological missions. These include communications satellites like Starlink; space stations such as the ISS; scientific satellites like the Hubble; Earth observation satellites from companies like Planet Labs, Umbra, and HawkEye 360; GPS; miniature CubeSats for education and research; and military/defense satellites.

Loading next visibility...
Identifier
67440, 2026-007F
Orbit
LEO
Country
Flag of CNCN / PRC
Related business
Manufacturer
CAST
Mission
Operational Civil Communications
Bus & Motor
XINGWANG C, Unknown motor
Mass
~700 kg wet, ~700 kg dry
Launch date (UTC)
2026-01-13 (5 months ago)
Launch vehicle
CHANG ZHENG 8A
Launch site
Wenchang Satellite Launch Center (WSC)
Object type
Payload
Rocket body
Debris
Shape & HBR
Box + 2 Pan, 2.5 m
Radar Cross Section
5.935 m², Large (>1 m²)

Expand to show TLE details & history
Last TLE update: 10 hours ago

TLE from 10 hours ago
0 HULIANWANG DIGUI-142
1 67440U 26007F   26171.44705307 -.00000092  00000-0  69334-4 0  9994
2 67440  50.0131  74.0701 0000896  21.2200 338.8709 13.29325359 21229
Epoch: 2026-06-20T10:43Z
TLE epoch observation values (Epoch: 2026-06-20T10:43:45.385Z)
Latitude
-0.00003°
Longitude
4.46942°
Altitude
1,149.187 km
Speed
7.28 km/s
True Right ascension
04h 56m 16s
True Declination
0° 00' 00"
Sunlit
Object was in daylight at epoch
Visualization orbit readout
Latitude
Unknown
Longitude
Unknown
Altitude
Unknown
Speed
Unknown
Apparent Right ascension
Unknown
Apparent Declination
Unknown
Sunlit
N/A
Visualization observer readout
Local Sidereal Time
07:20:52
Azimuth
Unknown
Elevation
Unknown
Doppler factor
Unknown
Orbital elements
Apogee altitude
1,150.687 km
Perigee altitude
1,149.338 km
Semi-major axis
7,528.149 km
Eccentricity
0.00009
Inclination
50.0131°
RAAN
74.0701°
Arg. of periapsis
21.22°
True anomaly
338.8672°
Mean anomaly
338.8709°
Eccentric anomaly
338.86905°
Mean motion
3.32285 °/min
Orbital period
108.34 mins
BSTAR
0.000069334
Loading maneuver chart data...
Computing Atmospheric mass density...
Loading historical data...
Loading historical data...
Loading historical data...
Loading historical data...
Loading historical data...
Loading historical data...
Loading historical data...

Documentation

Showing up to 5 results
|